Location: Tom
(33.0437°N, 96.9452°W)
Time: 19:07:13
(UTC-06:00)

N. Korean satellite - Visible Passes

Search period start: 23 January 2019 00:00
Search period end: 02 February 2019 00:00
Orbit: 458 x 509 km, 97.2° (Epoch: 22 January)

Date Brightness Start Highest point End Pass type
(mag) Time Alt. Az. Time Alt. Az. Time Alt. Az.
23 Jan 10.2 05:37:21 10° ENE 05:38:29 11° E 05:39:37 10° ESE visible
24 Jan 6.5 06:43:46 10° N 06:47:25 75° WNW 06:51:01 10° SSW visible
24 Jan 9.8 18:49:17 10° SW 18:51:55 19° W 18:54:36 10° NW visible
25 Jan 7.8 06:19:15 10° NNE 06:22:45 45° E 06:26:13 10° S visible
25 Jan 8.2 18:23:42 10° S 18:27:10 40° W 18:30:42 10° NNW visible
26 Jan 9.4 05:55:15 10° NE 05:58:01 20° E 06:00:44 10° SE visible
27 Jan 10.5 19:10:55 10° W 19:11:27 10° W 19:12:00 10° W visible
28 Jan 6.5 06:38:31 10° N 06:42:10 89° W 06:45:43 10° SSW visible
28 Jan 9.6 18:43:43 10° SSW 18:46:38 22° W 18:49:35 10° NW visible
29 Jan 8.2 06:14:04 10° NNE 06:17:28 37° E 06:20:47 10° SSE visible
29 Jan 7.9 18:18:19 10° S 18:21:53 48° W 18:25:30 10° NNW visible
30 Jan 9.7 05:50:14 10° NE 05:52:41 17° E 05:55:05 10° SE visible
31 Jan 10.2 19:04:35 10° WSW 19:06:07 12° W 19:07:41 10° WNW visible
01 Feb 6.7 06:33:15 10° NNE 06:36:51 77° E 06:40:22 10° S visible
01 Feb 9.3 18:38:11 10° SSW 18:41:19 26° W 18:44:29 10° NW visible
